Location: ?astrovice
(49.6513°N, 14.9287°E)
Time: 01:28:36
(UTC+00:00)

BREEZE-M DEB (TANK) - Pass Details

Date: 09 April 2020
Orbit: 321 x 11933 km, 49.7° (Epoch: 29 May)

Event Time Altitude Azimuth Distance (km) Brightness Sun altitude
Rises 18:25:14 0° 286° (WNW) 6,012 11.2 -7.1°
Reaches altitude 10° 18:30:44 10° 284° (WNW) 3,630 9.2 -7.9°
Maximum altitude 18:37:46 60° 206° (SSW) 709 4.0 -8.9°
Enters shadow 18:40:19 13° 126° (SE) 1,364 4.8 -9.3°
